Location: Waning Moon II Observatory
(30.3730°N, 89.7620°W)
Time: 17:26:11
(UTC-05:00)

Cosmos 1825 Rocket - Visible Passes

Search period start: 01 August 2014 00:00
Search period end: 11 August 2014 00:00
Orbit: 606 x 633 km, 82.5° (Epoch: 31 July)

Date Brightness Start Highest point End Pass type
(mag) Time Alt. Az. Time Alt. Az. Time Alt. Az.
01 Aug 5.2 22:27:10 10° N 22:29:21 28° NNE 22:29:21 28° NNE visible
02 Aug 5.3 22:44:37 10° NNW 22:46:53 30° NNW 22:46:53 30° NNW visible
03 Aug 5.6 21:25:48 10° NE 21:27:16 14° ENE 21:27:16 14° ENE visible
03 Aug 5.9 23:02:29 10° NNW 23:04:26 21° NW 23:04:26 21° NW visible
04 Aug 4.9 21:42:10 10° NNE 21:44:50 26° NE 21:44:50 26° NE visible
04 Aug 6.5 23:21:08 10° NW 23:22:00 13° WNW 23:22:00 13° WNW visible
05 Aug 4.2 21:59:13 10° N 22:02:25 45° NNE 22:02:25 45° NNE visible
06 Aug 4.5 22:16:42 10° NNW 22:20:02 46° NW 22:20:02 46° NW visible
07 Aug 5.2 20:57:42 10° NE 21:00:30 17° ENE 21:00:31 17° ENE visible
07 Aug 5.4 22:34:38 10° NNW 22:37:41 26° WNW 22:37:41 26° WNW visible
08 Aug 4.3 21:14:10 10° NNE 21:18:06 33° E 21:18:11 33° E visible
08 Aug 6.3 22:53:25 10° WNW 22:55:22 14° W 22:55:22 14° W visible
09 Aug 3.4 21:31:16 10° N 21:35:37 71° E 21:35:54 68° ESE visible
10 Aug 4.1 21:48:48 10° NNW 21:53:02 53° W 21:53:39 48° SW visible
